Regional Weather Roundup
Issued by NWS

Home | Current Version | Previous Version | Text Only | Print | Product List | Glossary On
Versions: 1 2 3 4 5 6 7 8 9 10 11 12 13 14 15 16 17 18 19 20 21 22 23 24 25 26 27 28 29 30 31 32 33 34 35 36 37 38 39 40 41 42 43 44 45 46 47 48 49 50
000
ASUS46 KPQR 010210
RWROR

OREGON REGIONAL WEATHER ROUNDUP
NATIONAL WEATHER SERVICE PORTLAND OR
700 PM PDT THU JUL 31 2014

NOTE: "FAIR" INDICATES FEW OR NO CLOUDS BELOW 12,000 FEET WITH
NO SIGNIFICANT WEATHER AND/OR OBSTRUCTIONS TO VISIBILITY.

ORZ001>013-010300-
NORTHWEST OREGON


CITY           SKY/WX    TMP DP  RH WIND       PRES   REMARKS
ASTORIA        LGT RAIN  68  51  54 NW16      30.04F
NEWPORT        MOSUNNY   55  54  94 NW17G23   30.05F FOG
PORTLAND       MOSUNNY   89  57  33 NW15G23   29.93S
VANCOUVER WA   MOSUNNY   88  56  33 NW10      29.93S
SCAPPOOSE      MOSUNNY   88  53  30 NW7G20    29.93F
HILLSBORO      SUNNY     88  55  32 N13       29.94S
AURORA         MOSUNNY   89  56  32 N9        29.94F
MCMINNVILLE    MOSUNNY   89  56  32 N14       29.94S
SALEM          MOSUNNY   90  56  31 NE10      29.92S
CORVALLIS        N/A     86  61  42 NW13      29.95S
EUGENE         MOSUNNY   90  53  28 NE9       29.93S
$$

ORZ021-028-010300-
SOUTHWEST OREGON


CITY           SKY/WX    TMP DP  RH WIND       PRES   REMARKS
NORTH BEND     SUNNY     63  57  82 N17G28    30.04R
BROOKINGS      CLEAR     62  56  81 CALM      29.99S
ROSEBURG       MOSUNNY   90  52  27 N9        29.93S
SEXTON SUMMIT  MOSUNNY   75  53  46 N9        30.09R
MEDFORD        MOSUNNY   97  50  20 N14       29.89R HX  94
$$

ORZ009-041-010300-
COLUMBIA GORGE


CITY           SKY/WX    TMP DP  RH WIND       PRES   REMARKS
TROUTDALE      MOSUNNY   90  56  31 W5        29.91S
THE DALLES     PTSUNNY   94  61  33 NW17G25   29.83S HX  94
$$

ORZ029>031-042>050-061>064-010300-
EASTERN OREGON


CITY           SKY/WX    TMP DP  RH WIND       PRES   REMARKS
REDMOND        CLOUDY    91  36  14 NW9       30.01S
BEND             N/A    N/A N/A N/A MISG        N/A
KLAMATH FALLS  PTSUNNY   85  49  28 CALM      30.03F
LAKEVIEW       CLOUDY    64  54  68 N15       30.16S
HERMISTON      SUNNY     96  49  20 E10       29.88F HX  93
PENDLETON      MOSUNNY   92  44  19 SE7       29.93F
JOHN DAY       CLEAR     87  44  21 E13G20    30.07S
MEACHAM        MOSUNNY   78  50  37 CALM      30.10F
LA GRANDE      PTSUNNY   84  48  28 CALM      30.04F
BAKER CITY     PTSUNNY   78  55  44 E3        30.10F
BURNS          MOSUNNY   87  42  20 NE16      30.08F
ROME             N/A     88  36  15 NE7       30.07F
ONTARIO        PTSUNNY   90  46  21 N7        29.99S
$$


USA.gov is the U.S. government's official web portal to all federal, state and local government web resources and services.